Find Starlink 30951

NORAD ID: 58439 Int'l Des: 2023-183 Owner: SPXS Country: US Constellation: starlink operational
LEOCIRCULAR

当前视图

正在加载3D地球...

About Starlink 30951

Starlink 30951 (NORAD 58439) is a starlink constellation satellite (v2 mini) launched Nov 28, 2023 by SPXS of US. It operates in LEO, CIRCULAR orbit with a mass of 730.00 kg.

关于 Starlink 30951

正在加载描述...

即将过境

Passes for default location (London). Set your location on the main map for personalized predictions.

高度历史

Loading altitude history...

两行轨道根数

1 58439U 23183C 26171.02523021 .00000647 00000-0 33047-4 0 9996
2 58439 43.0034 183.8231 0001625 277.7055 82.3612 15.27577433142382
Epoch: Jun 20, 2026 • Age: 14 hours

当前状态

高度 484.4 km
速度 7.63 km/s
星下点 30.47°N, 86.41°E
发射日期 Nov 28, 2023
运行时间 2.5 years
类型 internet

技术详情

分类 Payload
质量 730.00 kg
干质量 700.00 kg
总质量 730.00 kg
长度 0.30 m
直径 4.10 m
跨度 29.00 m
形状 Box + pan
制造商 SPXS
平台类型 Starlink V2M
阶段状态 In Orbit
所有者/国家 SPXS/US

Most Searched